This demonstration page uses our WeatherBlox Daily Observations layout. Learn more.

Left ArrowRight Arrow

Hourly Observations for July 23, 2018

Temp ( °F °C ) Dew Point ( °F °C ) Humidity (%) Winds ( mph kmh ) Pressure ( in mb ) Visibility ( mi km ) Precip ( " mm )
12:51 am 00:51 Clear 89 31.7 47 8.3 23 23 NW 13 20 29.78 1008 10 16.0934 N/A
1:51 am 01:51 Clear 87 30.6 47 8.3 25 25 NW 14 22 29.78 1008 10 16.0934 N/A
2:51 am 02:51 Clear 86 30 46 7.8 25 25 NW 12 19 29.77 1008 10 16.0934 N/A
3:51 am 03:51 Clear 83 28.3 47 8.3 28 28 NW 10 17 29.78 1008 10 16.0934 N/A
4:51 am 04:51 Clear 83 28.3 47 8.3 28 28 NW 12 19 29.79 1009 10 16.0934 N/A
5:51 am 05:51 Sunny 81 27.2 48 8.9 32 32 NNW 8 13 29.81 1009 10 16.0934 N/A
6:51 am 06:51 Sunny 89 31.7 47 8.3 23 23 NNW 12 19 29.81 1010 10 16.0934 N/A
7:51 am 07:51 Sunny 92 33.3 47 8.3 21 21 NW 14 22 29.81 1009 10 16.0934 N/A
8:51 am 08:51 Sunny 96 35.6 47 8.3 19 19 NW 15 24 29.8 1009 10 16.0934 N/A
9:51 am 09:51 Sunny 99 37.2 47 8.3 17 17 WNW 14 22 29.79 1009 10 16.0934 N/A
10:51 am 10:51 Sunny 102 38.9 49 9.4 17 17 W 10 17 29.78 1009 10 16.0934 N/A
11:51 am 11:51 Sunny 104 40 48 8.9 15 15 W 9 15 29.77 1008 10 16.0934 N/A
12:51 pm 12:51 Sunny 105 40.6 46 7.8 14 14 VRB 5 7 29.74 1007 10 16.0934 N/A
1:51 pm 13:51 Sunny 107 41.7 41 5 11 11 VRB 5 7 29.72 1006 10 16.0934 N/A
2:51 pm 14:51 Sunny 109 42.8 41 5 10 10 SW 7 11 29.69 1005 10 16.0934 N/A
3:51 pm 15:51 Sunny with Nearby Thunderstorms 110 43.3 39 3.9 9 9 N N/A 29.67 1005 10 16.0934 N/A
4:09 pm 16:09 Sunny 112 44.4 37 2.8 8 8 SSE 13 20 29.5 999 10 16.0934 N/A
4:51 pm 16:51 Sunny 107 41.7 40 4.4 10 10 WNW 6 9 29.67 1005 10 16.0934 N/A
5:51 pm 17:51 Sunny 105 40.6 49 9.4 15 15 WNW 15 24 29.69 1005 10 16.0934 N/A
6:23 pm 18:23 Mostly Cloudy with Light Rain 100 37.8 53 11.7 21 21 ENE 15 24 29.62 1003 10 16.0934 N/A
6:32 pm 18:32 Partly Cloudy with Nearby Thunderstorms 100 38 48 9 17 17 ENE 16 26 29.62 1003 10 16.0934 N/A
6:47 pm 18:47 Partly Cloudy with Thunderstorms 99 37 52 11 21 21 ENE 24 39 29.65 1004 10 16.0934 N/A
6:51 pm 18:51 Partly Cloudy with Thunderstorms 98 36.7 51 10.6 20 20 NE 21 33 29.73 1007 10 16.0934 N/A
7:02 pm 19:02 Sunny with Nearby Thunderstorms 97 36 52 11 22 22 NNE 22 35 29.65 1004 10 16.0934 N/A
7:15 pm 19:15 Sunny with Thunderstorms 98 36.7 50 10 20 20 NE 21 33 29.65 1004 10 16.0934 N/A
7:51 pm 19:51 Partly Cloudy with Thunderstorms 92 33.3 57 13.9 31 31 WNW 14 22 29.78 1008 10 16.0934 N/A
8:28 pm 20:28 Clear with Nearby Thunderstorms 88 31 61 16 40 40 N 15 24 29.71 1006 10 16.0934 N/A
8:51 pm 20:51 Clear 88 31.1 56 13.3 34 34 N 18 30 29.78 1008 10 16.0934 N/A
9:37 pm 21:37 Clear 90 32.2 54 12.2 29 29 S 6 9 29.74 1007 10 16.0934 N/A
9:51 pm 21:51 Clear 87 30.6 58 14.4 37 37 WNW 5 7 29.8 1009 10 16.0934 N/A
10:51 pm 22:51 Clear 83 28.3 64 17.8 53 53 ENE 5 7 29.8 1009 10 16.0934 N/A
11:51 pm 23:51 Clear 82 27.8 63 17.2 53 53 E 3 6 29.81 1010 10 16.0934 N/A

Powered by AerisWeather